#timestamp,LO_Frequency,Hit,StdDev 
1556215215.1,286046916.5,N
1556215235.8,286046922.5,N
1556215255.7,286046913.7,Y
1556215275.5,286046995.2,P
1556215295.3,286047000.3,N
1556215315.2,286047000.0,N
1556215335.9,286047002.8,N
1556215355.7,286047003.6,N
1556215375.6,286047005.7,N
1556215395.4,286047006.3,N
1556215415.2,286047008.9,N
1556215435.0,286047065.2,N
1556215435.9,286047065.2,N
1556215455.8,286047064.7,N
1556215475.6,286047064.9,N
1556215495.4,286046993.1,N
1556215515.3,286046992.8,N
1556215535.1,286046992.9,N
1556215555.8,286046991.9,N
1556215575.7,286046991.7,N
1556215595.5,286046994.3,N
1556215615.3,286046994.2,N
1556215635.2,286046993.7,N
1556215655.9,286046996.4,N
1556215675.7,286046995.6,N
1556215695.5,286046997.8,N
1556215715.4,286046996.8,N
1556215735.2,286046996.5,N
1556215755.0,286046996.9,N
1556215755.9,286046996.9,N
1556215775.8,286046999.6,N
1556215795.6,286047001.1,N
1556215815.4,286046998.2,N
1556215835.3,286046998.1,N
1556215855.1,286047034.3,N
1556215856.0,286047034.3,N
1556215875.8,286047033.6,N
1556215895.7,286047036.1,N
1556215915.5,286047034.9,N
1556215935.3,286047037.9,N
1556215955.1,286047035.1,N
1556215975.9,286046956.7,N
1556215995.7,286046958.7,N
1556216015.5,286046960.5,N
1556216035.4,286046957.9,N
1556216055.2,286047025.0,N
1556216075.0,286047025.7,N
1556216075.9,286047025.7,N
1556216095.8,286047025.4,N
1556216115.6,286047028.0,N
1556216135.4,286047027.4,N
1556216155.3,286047029.6,N
1556216175.1,286047029.7,N
1556216176.0,286047029.7,N
1556216195.8,286047029.0,N
1556216215.6,286047028.7,N
1556216235.5,286047031.9,N
1556216255.3,286047031.2,N
1556216275.1,286047031.0,N
1556216295.9,286047032.7,N
1556216315.7,286047031.9,N
1556216335.5,286047034.3,N
1556216355.4,286047034.4,N
1556216375.2,286047033.8,N
1556216395.0,286047035.0,N
1556216395.9,286047035.0,N
1556216415.8,286047035.7,N
1556216435.6,286047037.5,N
1556216455.4,286047036.7,N
1556216475.2,286047039.2,N
1556216495.1,286047038.2,N
1556216496.0,286047038.2,N
1556216515.8,286047041.1,N
1556216535.6,286047039.7,N
1556216555.5,286047039.7,N
1556216575.3,286047041.9,Y
1556216595.1,286047010.3,P
1556216615.9,286047010.0,N
1556216635.7,286047007.7,N
1556216655.5,286047012.3,N
1556216675.4,286047013.1,N
1556216695.2,286047013.9,N
1556216715.0,286047012.6,N
1556216715.9,286047012.6,N
1556216735.8,286047014.6,N
1556216755.6,286047016.4,N
1556216775.4,286047015.9,N
1556216795.3,286047018.6,Y
1556216815.1,286047001.5,P
1556216816.0,286047001.5,N
1556216835.8,286047015.1,N
1556216855.7,286047013.0,N
1556216875.5,286047007.3,N
1556216895.3,286047026.0,Y
1556216915.2,286047008.4,P
1556216935.9,286047000.7,P
1556216955.7,286047000.0,N
1556216975.5,286046999.7,N
1556216995.4,286047002.7,N
1556217015.2,286047001.5,N
1556217035.0,286047001.3,N
1556217035.9,286047001.3,N
1556217055.8,286047003.9,N
1556217075.6,286047004.1,N
1556217095.4,286047003.0,N
1556217115.3,286047007.2,N
1556217135.1,286047008.8,N
1556217136.0,286047008.8,N
1556217155.8,286047008.5,N
1556217175.7,286047006.6,N
1556217195.5,286047010.7,Y
1556217215.3,286047005.5,P
1556217235.2,286047007.6,P
1556217255.9,286047006.7,P
1556217275.7,286047006.5,Y
1556217295.6,286047002.4,P
1556217315.4,286047001.9,N
1556217335.2,286047004.3,N
1556217355.0,286047003.4,N
1556217355.9,286047003.4,N
1556217375.8,286047006.0,Y
1556217395.6,286047001.6,P
1556217415.4,286047001.5,N
1556217435.3,286047004.3,P
1556217455.1,286047003.7,Y
1556217475.8,286047004.4,P
1556217495.7,286047001.8,N
1556217515.5,286047003.8,P
1556217535.3,286047003.7,Y
1556217555.2,286046999.7,P
1556217575.0,286047003.3,N
1556217575.9,286047003.3,N
1556217595.7,286047002.0,N
1556217615.6,286047004.0,N
1556217635.4,286046988.3,Y
1556217655.2,286046996.9,P
1556217675.1,286047002.6,N
1556217676.0,286047002.6,N
1556217695.8,286047003.2,N
1556217715.6,286047003.2,N
1556217735.5,286047004.7,N
1556217755.3,286047004.7,N
1556217775.1,286047007.3,Y
1556217795.9,286047003.7,P
1556217815.7,286047003.3,P
1556217835.5,286047004.1,P
1556217855.4,286047005.9,Y
1556217875.2,286047001.5,P
1556217895.0,286047004.2,P
1556217895.9,286047004.2,P
1556217915.8,286047003.0,N
1556217935.6,286047005.0,Y
1556217955.4,286047001.9,P
1556217975.3,286047001.9,N
1556217995.1,286047003.7,P
1556217996.0,286047003.7,Y
1556218015.8,286047002.6,P
1556218035.7,286047001.8,P
1556218055.5,286047003.2,P
1556218075.3,286047003.2,Y
1556218095.2,286047001.7,P
1556218115.9,286047002.1,P
1556218135.7,286047001.8,P
1556218155.6,286047001.4,Y
1556218175.4,286047000.9,P
1556218195.2,286047004.4,P
1556218215.1,286047004.1,N
1556218216.0,286047004.1,N
1556218235.8,286047003.4,N
1556218255.6,286047003.2,N
1556218275.5,286047005.6,Y
1556218295.3,286047001.5,P
1556218315.1,286047004.3,P
1556218335.9,286047003.3,N
1556218355.7,286047003.7,Y
1556218375.5,286046999.8,P
1556218395.4,286047002.8,N
1556218415.2,286046990.3,P
1556218435.0,286046992.8,N
1556218435.9,286046992.8,N
1556218455.8,286047022.2,Y
1556218475.6,286047008.2,P
1556218495.4,286047005.1,N
1556218515.2,286047009.1,N
1556218535.1,286047008.9,N
1556218536.0,286047008.9,N
1556218555.8,286047007.9,N
1556218575.6,286047010.7,N
1556218595.5,286047009.9,N
1556218615.3,286047012.0,Y
1556218635.1,286047003.9,P
1556218655.9,286047003.1,N
1556218675.7,286047005.5,P
1556218695.5,286047005.5,Y
1556218715.4,286047002.4,P
1556218735.2,286047012.5,P
1556218755.0,286047006.0,N
1556218755.9,286047006.0,N
1556218775.8,286047008.9,N
1556218795.6,286047008.2,N
